IRIDIUM 145 (43253 NORAD) Tracking and Keplerian Element Data

This shows tracking and keplerian element data for the satellite.

Feedback or suggestion? Click here.




ElementValue
Catalog43253
NameIRIDIUM 145
Epoch Orbit419
Epoch Day118.54201935
Epoch Year2018
RAAN92.2849
Inclination86.3945
Eccentricity0.000135
Argument of Perigee139.6786
Mean Anonmoly220.451
Mean Motion14.3421537
Decay Rate1.8E-07
L11 43253U 18030E 18118.54201935 .00000018 00000-0 -78364-6 0 9991
L22 43253 86.3945 92.2849 0001350 139.6786 220.4510 14.34215370 4195

Live tracking and technical data element details for IRIDIUM 145 (NORAD 43253). IRIDIUM 145 can be tracked NOW for your location showing map with azimuth and elevation plus other details from your city location.

Track the satellite on the map from your city or location and see movement details for azimuth, elevation, latitude, longitude, range, height, and movement on the map or in text.







IsCatalogInMostPopularTable: catalog: 43253, numindb: 58
Update: records affected: 1



GetName: 43253 IRIDIUM 145

Hit Count: updated at: Tue, 20 Nov 2018 08:44:53 GMT